STARLINK-4573, 53623

Orbit data source: Space-Track

STARLINK-4573, 53623 is a payload satellite owned by SpaceX/Seattle (US) in LEO that was launched on Sun, 28 Aug 2022 UTC via an FALCON 9 launch vehicle from the Air Force Eastern Test Range (AFETR). Payload-class satellites include a variety of spacecraft equipped with specific instruments for various scientific and technological missions. These include communications satellites like Starlink; space stations such as the ISS; scientific satellites like the Hubble; Earth observation satellites from companies like Planet Labs, Umbra, and HawkEye 360; GPS; miniature CubeSats for education and research; and military/defense satellites.

Loading next visibility...
Identifier
53623, 2022-104AM
Orbit
LEO
Country
Flag of USUS
Related business
Manufacturer
SpaceX/Seattle
Mission
Operational Commercial Communications
Bus & Motor
STARLINK, Unknown motor
Mass
300 kg wet, ~290 kg dry
Launch date (UTC)
2022-08-28 (4 years ago)
Launch vehicle
FALCON 9
Launch site
Air Force Eastern Test Range (AFETR)
Object type
Payload
Rocket body
Debris
Shape & HBR
Box + 1 Pan, 10.1 m
Radar Cross Section
13.562 m², Large (>1 m²)

Expand to show TLE details & history
Last TLE update: 8 hours ago

TLE from 8 hours ago
0 STARLINK-4573
1 53623U 22104AM  26127.55655816 -.00000289  00000-0 -51954-7 0  9999
2 53623  53.2181 329.7320 0001274  95.6964 264.4174 15.08837459204633
Epoch: 2026-05-07T13:21Z
TLE epoch observation values (Epoch: 2026-05-07T13:21:26.625Z)
Latitude
0.00004°
Longitude
-96.0299°
Altitude
540.735 km
Speed
7.593 km/s
True Right ascension
21h 58m 55s
True Declination
0° 00' 00"
Sunlit
Object was in daylight at epoch
Visualization orbit readout
Latitude
Unknown
Longitude
Unknown
Altitude
Unknown
Speed
Unknown
Apparent Right ascension
Unknown
Apparent Declination
Unknown
Sunlit
N/A
Visualization observer readout
Local Sidereal Time
04:56:40
Azimuth
Unknown
Elevation
Unknown
Doppler factor
Unknown
Orbital elements
Apogee altitude
540.877 km
Perigee altitude
539.115 km
Semi-major axis
6,918.133 km
Eccentricity
0.00013
Inclination
53.2181°
RAAN
329.732°
Arg. of periapsis
95.6964°
True anomaly
264.40287°
Mean anomaly
264.4174°
Eccentric anomaly
264.41014°
Mean motion
3.7719 °/min
Orbital period
95.44 mins
BSTAR
-5.1954e-8
Loading maneuver chart data...
Computing Atmospheric mass density...

Documentation

Showing up to 5 results
|